This demonstration page uses our WeatherBlox Daily Observations layout. Learn more.

Left ArrowRight Arrow

Hourly Observations for April 7, 2015

Temp ( °F °C ) Dew Point ( °F °C ) Humidity (%) Winds ( mph kmh ) Pressure ( in mb ) Visibility ( mi km ) Precip ( " mm )
12:53 am 00:53 Cloudy 52 11.1 50 10 93 93 ENE 15 24 29.79 1009 7 11 0.00 0.00
1:53 am 01:53 Cloudy with Mist and Fog 52 11.1 50 10 93 93 ENE 16 26 29.78 1008 6 10 0.00 0.00
2:53 am 02:53 Cloudy with Mist and Fog 52 11.1 50 10 93 93 ENE 17 28 29.76 1008 5 8 0.00 0.00
3:41 am 03:41 Cloudy with Mist and Fog 51 10.6 50 10 96 96 ENE 16 26 29.77 1008 2 3 0.00 0.00
3:53 am 03:53 Cloudy with Mist and Fog 51 10.6 50 10 96 96 ENE 18 30 29.74 1007 1 2 0.00 0.00
4:08 am 04:08 Cloudy with Mist and Fog 52 11 50 10 94 94 ENE 20 31 29.74 1007 2 3 0.00 0.00
4:42 am 04:42 Cloudy with Mist and Fog 51 10.6 50 10 96 96 ENE 16 26 29.74 1007 2 3 0.00 0.00
4:53 am 04:53 Cloudy with Mist and Fog 50 10 50 10 100 100 ENE 17 28 29.73 1007 2 2 0.00 0.00
5:11 am 05:11 Cloudy with Mist and Fog 50 10 49 9.4 96 96 ENE 15 24 29.74 1007 1 1 0.00 0.00
5:46 am 05:46 Cloudy with Mist and Fog 50 10 50 10 100 100 NE 16 26 29.80 1009 2 3 0.00 0.00
5:53 am 05:53 Cloudy with Mist and Fog 50 10 49 9.4 96 96 NE 15 24 29.78 1009 3 5 0.00 0.00
6:29 am 06:29 Cloudy with Mist and Fog 50 10 48 9 94 94 NNE 14 22 29.80 1009 2 3 0.00 0.00
6:53 am 06:53 Cloudy with Mist and Fog 50 10 49 9.4 96 96 NE 16 26 29.79 1009 2 3 0.00 0.00
7:12 am 07:12 Cloudy with Mist and Fog 48 9 48 9 100 100 NNE 18 30 29.80 1009 1 1 0.00 0.00
7:23 am 07:23 Cloudy with Mist and Fog 49 9.4 48 8.9 97 97 NNE 17 28 29.80 1009 1 2 0.00 0.00
7:49 am 07:49 Cloudy with Light Rain 48 9 48 9 100 100 NNE 15 24 29.83 1010 1 1 0.00 0.03
7:53 am 07:53 Cloudy with Light Rain 49 9.4 48 8.9 97 97 NNE 14 22 29.83 1010 1 1 0.00 0.03
8:04 am 08:04 Cloudy with Light Rain 49 9.4 48 8.9 97 97 NNE 17 28 29.83 1010 1 2 0.00 0.03
8:53 am 08:53 Cloudy with Light Rain 47 8.3 46 7.8 97 97 NNE 21 33 29.85 1011 1 2 0.00 0.03
9:13 am 09:13 Cloudy with Light Rain 47 8.3 45 7.2 93 93 NNE 20 31 29.88 1012 3 5 0.01 0.25
9:34 am 09:34 Cloudy 46 8 45 7 93 93 NNE 21 33 29.88 1012 9 14 0.00 0.00
9:53 am 09:53 Cloudy 46 7.8 44 6.7 93 93 N 15 24 29.89 1012 7 11 0.01 0.25
10:04 am 10:04 Cloudy with Mist and Fog 46 8 45 7 93 93 N 17 28 29.91 1013 6 10 0.00 0.00
10:53 am 10:53 Cloudy with Mist and Fog 46 7.8 45 7.2 96 96 N 16 26 29.91 1013 3 5 0.00 0.00
11:06 am 11:06 Cloudy with Mist and Fog 46 7.8 45 7.2 96 96 NNE 14 22 29.94 1014 3 4 0.00 0.00
11:53 am 11:53 Cloudy with Mist and Fog 47 8.3 45 7.2 93 93 NNE 17 28 29.90 1013 2 3 0.00 0.00
12:50 pm 12:50 Cloudy with Mist and Fog 46 8 45 7 93 93 N 15 24 29.94 1014 3 5 0.00 0.00
12:53 pm 12:53 Cloudy with Mist and Fog 47 8.3 45 7.2 93 93 N 18 30 29.91 1013 3 5 0.00 0.00
1:53 pm 13:53 Cloudy with Mist and Fog 48 8.9 46 7.8 93 93 N 14 22 29.91 1013 5 8 0.00 0.00
2:53 pm 14:53 Cloudy with Mist and Fog 48 8.9 46 7.8 93 93 N 13 20 29.93 1014 3 4 0.00 0.00
3:03 pm 15:03 Cloudy with Mist and Fog 48 9 46 8 94 94 N 10 17 29.97 1015 3 5 0.00 0.00
3:15 pm 15:15 Cloudy with Mist and Fog 49 9.4 46 7.8 90 90 N 12 19 29.94 1014 3 5 0.00 0.00
3:53 pm 15:53 Cloudy with Mist and Fog 49 9.4 46 7.8 90 90 NNE 14 22 29.92 1013 4 6 0.00 0.00
4:38 pm 16:38 Cloudy 48 9 45 7 87 87 N 14 22 29.94 1014 7 11 0.00 0.00
4:53 pm 16:53 Cloudy 48 8.9 45 7.2 89 89 NNE 15 24 29.92 1013 7 11 0.00 0.00
5:10 pm 17:10 Cloudy 48 8.9 45 7.2 89 89 N 14 22 29.94 1014 10 16 0.00 0.00
5:53 pm 17:53 Cloudy 48 8.9 45 7.2 89 89 N 13 20 29.92 1013 10 16 0.00 0.00
6:53 pm 18:53 Cloudy 46 7.8 43 6.1 89 89 N 16 26 29.94 1014 10 16 0.00 0.00
7:53 pm 19:53 Cloudy 45 7.2 42 5.6 90 90 NNE 15 24 29.95 1014 9 14 0.00 0.00
8:53 pm 20:53 Cloudy 44 6.7 41 5 89 89 NNE 14 22 29.97 1015 10 16 0.00 0.00
9:53 pm 21:53 Cloudy 43 6.1 41 5 93 93 NNE 13 20 29.98 1015 8 13 0.00 0.00
10:36 pm 22:36 Cloudy with Mist and Fog 43 6 41 5 93 93 NE 10 17 30.00 1016 4 6 0.00 0.00
10:53 pm 22:53 Cloudy 43 6.1 41 5 93 93 NE 12 19 30.00 1016 8 13 0.00 0.00
11:18 pm 23:18 Cloudy 43 6 41 5 93 93 NE 12 19 30.00 1016 7 11 0.00 0.00
11:29 pm 23:29 Cloudy with Mist and Fog 42 5.6 41 5 96 96 NE 9 15 30.00 1016 6 10 0.00 0.00
11:53 pm 23:53 Cloudy 42 5.6 41 5 96 96 NE 10 17 29.98 1015 8 13 0.00 0.00

Powered by AerisWeather